Location: Grange Verzio
(44.5000°N, 6.9833°E)
Time: 18:45:38
(UTC+00:00)

Lacrosse 5 rocket - Pass Details

Date: 01 February 2023
Orbit: 455 x 612 km, 57.0° (Epoch: 29 March)

Event Time Altitude Azimuth Distance (km) Brightness Sun altitude
Rises 18:11:02 0° 316° (NW) 2,482 5.2 -16.3°
Reaches altitude 10° 18:13:27 10° 332° (NNW) 1,616 4.0 -16.7°
Enters shadow 18:16:18 23° 24° (NNE) 1,042 2.4 -17.2°
